Find Starlink 4775

NORAD ID: 53934 Int'l Des: 2022-119 Owner: SPXS Country: US Constellation: starlink operational
LEOCIRCULAR

Live-Position

3D-Globus wird geladen...

Über Starlink 4775

Beschreibung wird geladen...

Nächste Überflüge

Passes for default location (London). Set your location on the main map for personalized predictions.

Höhenverlauf

Loading altitude history...

Zweizeiliger Elementsatz

1 53934U 22119BA 26107.03643947 .00000324 00000-0 38421-4 0 9992
2 53934 53.2164 127.0246 0001484 73.6538 286.4617 15.08838014197849
Epoch: 17. Apr. 2026 • Age: 17 hours

Aktueller Status

Höhe 555.5 km
Geschwindigkeit 7.58 km/s
Subsatellitenpunkt -43.95°S, 123.69°W
Startdatum 24. Sept. 2022
Alter 3.5 years
Typ internet

Technische Details

Klassifizierung Payload
Masse 305.00 kg
Trockenmasse 290.00 kg
Gesamtmasse 305.00 kg
Länge 0.20 m
Durchmesser 2.80 m
Spannweite 9.00 m
Form Box + pan
Hersteller SPXS
Bus-Typ Starlink
Phasenstatus In Orbit
Besitzer/Staat SPXS/US

Most Searched